This demonstration page uses our WeatherBlox Daily Observations layout. Learn more.

Left ArrowRight Arrow

Hourly Observations for March 26, 2015

Temp ( °F °C ) Dew Point ( °F °C ) Humidity (%) Winds ( mph kmh ) Pressure ( in mb ) Visibility ( mi km ) Precip ( " mm )
12:51 am 00:51 Clear 59 15 25 -3.9 27 27 NNW 8 13 29.98 1015 10 16 0.00 0.00
1:51 am 01:51 Clear 58 14.4 25 -3.9 28 28 NNW 9 15 29.97 1015 10 16 0.00 0.00
2:51 am 02:51 Clear 53 11.7 26 -3.3 35 35 Calm 29.98 1015 10 16 0.00 0.00
3:51 am 03:51 Clear 53 11.7 26 -3.3 35 35 W 3 6 30.00 1016 10 16 0.00 0.00
4:51 am 04:51 Clear 51 10.6 25 -3.9 36 36 SE 6 9 30.03 1017 10 16 0.00 0.00
5:51 am 05:51 Clear 53 11.7 19 -7.2 26 26 SE 9 15 30.05 1018 10 16 0.00 0.00
6:51 am 06:51 Sunny 55 12.8 15 -9.4 20 20 E 12 19 30.08 1019 10 16 0.00 0.00
7:51 am 07:51 Sunny 59 15 19 -7.2 21 21 undefined N/A 30.11 1020 10 16 0.00 0.00
8:51 am 08:51 Sunny 66 18.9 14 -10 13 13 E 17 28 30.12 1020 10 16 0.00 0.00
9:51 am 09:51 Sunny 68 20 18 -7.8 15 15 ESE 12 19 30.14 1021 10 16 0.00 0.00
10:51 am 10:51 Sunny 71 21.7 20 -6.7 14 14 SSE 9 15 30.13 1020 10 16 0.00 0.00
11:51 am 11:51 Sunny 72 22.2 19 -7.2 13 13 SE 10 17 30.11 1020 10 16 0.00 0.00
12:51 pm 12:51 Sunny 73 22.8 17 -8.3 12 12 SE 9 15 30.08 1019 10 16 0.00 0.00
1:51 pm 13:51 Sunny 75 23.9 18 -7.8 11 11 SSE 9 15 30.04 1017 10 16 0.00 0.00
2:51 pm 14:51 Sunny 76 24.4 17 -8.3 11 11 undefined N/A 30.02 1017 10 16 0.00 0.00
3:51 pm 15:51 Sunny 78 25.6 18 -7.8 10 10 S 8 13 30.00 1016 10 16 0.00 0.00
4:51 pm 16:51 Sunny 77 25 17 -8.3 10 10 S 8 13 30.00 1016 10 16 0.00 0.00
5:51 pm 17:51 Sunny 76 24.4 18 -7.8 11 11 SSE 7 11 30.00 1016 10 16 0.00 0.00
6:51 pm 18:51 Clear 72 22.2 20 -6.7 14 14 Calm 30.01 1016 10 16 0.00 0.00
7:51 pm 19:51 Clear 61 16.1 23 -5 23 23 Calm 30.04 1017 10 16 0.00 0.00
8:51 pm 20:51 Clear 57 13.9 24 -4.4 28 28 Calm 30.05 1018 10 16 0.00 0.00
9:51 pm 21:51 Clear 56 13.3 23 -5 28 28 ENE 7 11 30.07 1018 10 16 0.00 0.00
10:51 pm 22:51 Clear 55 12.8 22 -5.6 28 28 E 6 9 30.08 1019 10 16 0.00 0.00
11:51 pm 23:51 Clear 54 12.2 24 -4.4 31 31 S 5 7 30.09 1019 10 16 0.00 0.00

Powered by AerisWeather